AXB531 VAPO-VOGO

Flight info

Callsign AXB531
Flight time 0h 44m
Altitude 21000
Route AVKOR2A AVKOR W128 EPKOS EPKOS2A
Aircraft B38M/M-SDE1FGHILORVWXY/HB1

Departure

Time 2026-04-28 11:26
Airport Pune International Airport (VAPO)

Arrival

Time 2026-04-28 12:10
Airport Goa Dabolim International Airport (VOGO)
Time Latitude Longitude Altitude Speed Heading
2026-04-28 11:01 18.57976 73.91133 1925 ft 0 kts 189°
2026-04-28 11:16 18.57988 73.91135 1928 ft 2 kts 183°
2026-04-28 11:17 18.58004 73.91135 1928 ft 2 kts 172°
2026-04-28 11:17 18.58020 73.91130 1928 ft 2 kts 144°
2026-04-28 11:17 18.58030 73.91117 1928 ft 2 kts 105°
2026-04-28 11:17 18.58032 73.91105 1928 ft 1 kts 95°
2026-04-28 11:18 18.58032 73.91104 1928 ft 0 kts 95°
2026-04-28 11:22 18.58031 73.91117 1927 ft 6 kts 95°
2026-04-28 11:22 18.58046 73.91193 1927 ft 16 kts 43°
2026-04-28 11:23 18.58114 73.91309 1928 ft 24 kts 95°
2026-04-28 11:23 18.58094 73.91522 1928 ft 35 kts 95°
2026-04-28 11:23 18.58077 73.91788 1928 ft 32 kts 93°
2026-04-28 11:23 18.58062 73.92054 1927 ft 41 kts 94°
2026-04-28 11:24 18.58042 73.92371 1927 ft 43 kts 95°
2026-04-28 11:24 18.58024 73.92674 1927 ft 48 kts 92°
2026-04-28 11:24 18.58026 73.93008 1927 ft 21 kts 56°
2026-04-28 11:24 18.58123 73.93000 1927 ft 16 kts 355°
2026-04-28 11:25 18.58181 73.92943 1928 ft 12 kts 280°
2026-04-28 11:25 18.58183 73.92902 1927 ft 4 kts 267°
2026-04-28 11:25 18.58188 73.92610 1928 ft 82 kts 274°
2026-04-28 11:25 18.58241 73.91749 1928 ft 153 kts 275°
2026-04-28 11:26 18.58325 73.90499 2378 ft 181 kts 274°
2026-04-28 11:26 18.58382 73.89077 3032 ft 206 kts 275°
2026-04-28 11:26 18.58469 73.87549 3998 ft 212 kts 275°
2026-04-28 11:26 18.58578 73.85899 4809 ft 235 kts 276°
2026-04-28 11:27 18.58720 73.84144 5686 ft 252 kts 276°
2026-04-28 11:27 18.58879 73.82244 6559 ft 268 kts 276°
2026-04-28 11:27 18.58845 73.80229 7440 ft 283 kts 256°
2026-04-28 11:27 18.57860 73.78444 8625 ft 288 kts 224°
2026-04-28 11:28 18.56099 73.77411 9571 ft 299 kts 192°
2026-04-28 11:28 18.54018 73.77376 10508 ft 305 kts 167°
2026-04-28 11:28 18.52058 73.78317 11207 ft 319 kts 138°
2026-04-28 11:28 18.50715 73.80187 11989 ft 328 kts 118°
2026-04-28 11:29 18.49569 73.82329 12733 ft 342 kts 122°
2026-04-28 11:29 18.48013 73.84252 13613 ft 348 kts 141°
2026-04-28 11:29 18.46096 73.85809 14573 ft 350 kts 140°
2026-04-28 11:29 18.44222 73.87512 15257 ft 361 kts 138°
2026-04-28 11:30 18.42372 73.89294 16176 ft 362 kts 137°
2026-04-28 11:30 18.38428 73.92717 17698 ft 373 kts 155°
2026-04-28 11:30 18.35973 73.93463 18460 ft 374 kts 174°
2026-04-28 11:31 18.33352 73.93694 19051 ft 380 kts 176°
2026-04-28 11:31 18.30712 73.93937 19754 ft 382 kts 177°
2026-04-28 11:31 18.28044 73.94192 20403 ft 386 kts 177°
2026-04-28 11:31 18.25341 73.94454 20993 ft 389 kts 177°
2026-04-28 11:32 18.22646 73.94716 21497 ft 392 kts 177°
2026-04-28 11:32 18.19937 73.94979 22035 ft 395 kts 177°
2026-04-28 11:32 18.17161 73.95248 22530 ft 398 kts 178°
2026-04-28 11:32 18.14406 73.95516 23029 ft 401 kts 178°
2026-04-28 11:33 18.11632 73.95785 23505 ft 404 kts 178°
2026-04-28 11:33 18.08808 73.96058 23901 ft 406 kts 178°
2026-04-28 11:33 18.06022 73.96328 24319 ft 408 kts 178°
2026-04-28 11:33 18.03148 73.96638 24716 ft 413 kts 176°
2026-04-28 11:34 18.00322 73.97039 25124 ft 415 kts 176°
2026-04-28 11:34 17.97463 73.97434 25525 ft 417 kts 177°
2026-04-28 11:34 17.94581 73.97826 25899 ft 420 kts 177°
2026-04-28 11:34 17.91648 73.98222 26314 ft 422 kts 178°
2026-04-28 11:35 17.88735 73.98615 26703 ft 424 kts 178°
2026-04-28 11:35 17.85801 73.99010 27082 ft 427 kts 178°
2026-04-28 11:35 17.82859 73.99406 27447 ft 430 kts 178°
2026-04-28 11:35 17.79857 73.99810 27815 ft 432 kts 178°
2026-04-28 11:36 17.76878 74.00211 28181 ft 435 kts 179°
2026-04-28 11:36 17.73892 74.00612 28534 ft 437 kts 179°
2026-04-28 11:36 17.70873 74.01018 28799 ft 441 kts 179°
2026-04-28 11:36 17.67805 74.01431 28818 ft 442 kts 179°
2026-04-28 11:37 17.61677 74.02254 28829 ft 442 kts 179°
2026-04-28 11:37 17.55586 74.03071 28821 ft 442 kts 179°
2026-04-28 11:38 17.49516 74.03885 28834 ft 442 kts 179°
2026-04-28 11:38 17.43400 74.04704 28838 ft 443 kts 179°
2026-04-28 11:39 17.37303 74.05520 28847 ft 443 kts 179°
2026-04-28 11:39 17.31168 74.06341 28838 ft 443 kts 179°
2026-04-28 11:40 17.26088 74.07020 28838 ft 442 kts 179°
2026-04-28 11:40 17.18955 74.07974 28838 ft 443 kts 178°
2026-04-28 11:41 17.13878 74.08652 28840 ft 443 kts 178°
2026-04-28 11:41 17.07730 74.09472 28848 ft 444 kts 178°
2026-04-28 11:42 17.01647 74.10284 28868 ft 430 kts 178°
2026-04-28 11:42 16.98733 74.10672 28559 ft 423 kts 178°
2026-04-28 11:42 16.95822 74.11061 28194 ft 416 kts 178°
2026-04-28 11:43 16.92965 74.11441 27666 ft 413 kts 178°
2026-04-28 11:43 16.90106 74.11821 27129 ft 427 kts 178°
2026-04-28 11:43 16.87105 74.12174 27178 ft 438 kts 179°
2026-04-28 11:43 16.84055 74.12501 26976 ft 438 kts 179°
2026-04-28 11:44 16.81035 74.12834 26087 ft 433 kts 178°
2026-04-28 11:44 16.78064 74.13163 25493 ft 421 kts 178°
2026-04-28 11:44 16.75193 74.13481 25051 ft 407 kts 178°
2026-04-28 11:44 16.72411 74.13790 24602 ft 396 kts 178°
2026-04-28 11:45 16.69709 74.14089 24159 ft 386 kts 178°
2026-04-28 11:45 16.67065 74.14382 23725 ft 377 kts 178°
2026-04-28 11:45 16.64388 74.14676 23154 ft 396 kts 177°
2026-04-28 11:45 16.61632 74.14982 22656 ft 402 kts 177°
2026-04-28 11:46 16.58856 74.15289 22214 ft 398 kts 176°
2026-04-28 11:46 16.56145 74.15589 21851 ft 384 kts 176°
2026-04-28 11:46 16.53530 74.15878 21432 ft 373 kts 176°
2026-04-28 11:46 16.50969 74.16159 20944 ft 367 kts 176°
2026-04-28 11:47 16.48488 74.16431 20563 ft 360 kts 176°
2026-04-28 11:47 16.45919 74.16712 20068 ft 385 kts 176°
2026-04-28 11:47 16.43206 74.17008 19614 ft 394 kts 176°
2026-04-28 11:47 16.40470 74.17308 19204 ft 404 kts 176°
2026-04-28 11:48 16.37587 74.17622 18651 ft 427 kts 175°
2026-04-28 11:48 16.34574 74.17951 18115 ft 444 kts 175°
2026-04-28 11:48 16.31428 74.18294 17766 ft 455 kts 175°
2026-04-28 11:48 16.28318 74.18636 17764 ft 454 kts 175°
2026-04-28 11:49 16.25169 74.18981 17741 ft 456 kts 175°
2026-04-28 11:49 16.22083 74.19318 17646 ft 431 kts 175°
2026-04-28 11:49 16.19210 74.19633 17376 ft 407 kts 175°
2026-04-28 11:49 16.16453 74.19936 16974 ft 390 kts 175°
2026-04-28 11:50 16.13793 74.20212 16585 ft 376 kts 177°
2026-04-28 11:50 16.11230 74.20128 16241 ft 361 kts 187°
2026-04-28 11:50 16.08778 74.19854 15996 ft 347 kts 186°
2026-04-28 11:50 16.06416 74.19623 15770 ft 334 kts 186°
2026-04-28 11:51 16.04068 74.19407 15485 ft 354 kts 185°
2026-04-28 11:51 16.01527 74.19182 15398 ft 372 kts 185°
2026-04-28 11:51 15.98905 74.18940 14386 ft 385 kts 184°
2026-04-28 11:51 15.96268 74.18721 13836 ft 370 kts 184°
2026-04-28 11:52 15.93787 74.18509 13217 ft 346 kts 184°
2026-04-28 11:52 15.91452 74.18307 12540 ft 329 kts 184°
2026-04-28 11:52 15.89194 74.18112 11857 ft 327 kts 183°
2026-04-28 11:52 15.86927 74.17918 11635 ft 325 kts 183°
2026-04-28 11:53 15.84701 74.17725 11611 ft 316 kts 183°
2026-04-28 11:53 15.82403 74.17528 11272 ft 355 kts 183°
2026-04-28 11:53 15.79790 74.17305 11160 ft 389 kts 183°
2026-04-28 11:53 15.77123 74.17072 11167 ft 385 kts 183°
2026-04-28 11:54 15.74434 74.16839 11115 ft 399 kts 183°
2026-04-28 11:54 15.71626 74.16597 10385 ft 411 kts 183°
2026-04-28 11:54 15.68889 74.16358 9633 ft 376 kts 183°
2026-04-28 11:54 15.66375 74.16138 8816 ft 351 kts 183°
2026-04-28 11:55 15.64013 74.15935 7974 ft 334 kts 183°
2026-04-28 11:55 15.61662 74.15735 7049 ft 341 kts 183°
2026-04-28 11:55 15.59302 74.15533 6308 ft 339 kts 184°
2026-04-28 11:55 15.56977 74.15334 5820 ft 329 kts 184°
2026-04-28 11:56 15.54747 74.15142 5563 ft 313 kts 184°
2026-04-28 11:56 15.52647 74.14960 5415 ft 293 kts 184°
2026-04-28 11:56 15.50671 74.14790 5201 ft 277 kts 184°
2026-04-28 11:56 15.48848 74.14633 5041 ft 247 kts 184°
2026-04-28 11:57 15.47241 74.14494 4894 ft 218 kts 184°
2026-04-28 11:57 15.45799 74.14358 4724 ft 202 kts 188°
2026-04-28 11:57 15.44512 74.13817 4440 ft 202 kts 223°
2026-04-28 11:57 15.43822 74.12600 4188 ft 193 kts 257°
2026-04-28 11:58 15.43577 74.11304 4155 ft 175 kts 260°
2026-04-28 11:58 15.43336 74.10016 4108 ft 190 kts 259°
2026-04-28 11:58 15.43089 74.08719 3965 ft 179 kts 259°
2026-04-28 11:58 15.42854 74.07512 3826 ft 162 kts 259°
2026-04-28 11:59 15.42629 74.06363 3728 ft 168 kts 259°
2026-04-28 11:59 15.42391 74.05147 3622 ft 170 kts 259°
2026-04-28 11:59 15.42163 74.03989 3570 ft 165 kts 258°
2026-04-28 11:59 15.41926 74.02776 3370 ft 176 kts 259°
2026-04-28 12:00 15.41689 74.01568 3158 ft 162 kts 258°
2026-04-28 12:00 15.41468 74.00452 3015 ft 170 kts 258°
2026-04-28 12:00 15.41229 73.99229 2829 ft 167 kts 258°
2026-04-28 12:00 15.41005 73.98092 2652 ft 155 kts 258°
2026-04-28 12:01 15.40795 73.97029 2465 ft 147 kts 258°
2026-04-28 12:01 15.40597 73.96025 2296 ft 137 kts 258°
2026-04-28 12:01 15.40398 73.95036 2141 ft 155 kts 258°
2026-04-28 12:01 15.40173 73.93861 1932 ft 168 kts 258°
2026-04-28 12:02 15.39954 73.92737 1712 ft 150 kts 259°
2026-04-28 12:02 15.39747 73.91688 1511 ft 151 kts 258°
2026-04-28 12:02 15.39535 73.90617 1328 ft 152 kts 259°
2026-04-28 12:02 15.39333 73.89580 1121 ft 138 kts 258°
2026-04-28 12:03 15.39137 73.88597 954 ft 143 kts 259°
2026-04-28 12:03 15.38941 73.87566 791 ft 149 kts 260°
2026-04-28 12:03 15.38704 73.86499 623 ft 157 kts 259°
2026-04-28 12:03 15.38506 73.85454 384 ft 143 kts 260°
2026-04-28 12:04 15.38318 73.84478 206 ft 131 kts 261°
2026-04-28 12:04 15.38095 73.83462 512 ft 159 kts 256°
2026-04-28 12:04 15.37696 73.82313 1076 ft 186 kts 235°
2026-04-28 12:04 15.36460 73.81497 822 ft 252 kts 193°
2026-04-28 12:05 15.35010 73.82115 1573 ft 205 kts 117°
2026-04-28 12:05 15.34830 73.83486 1818 ft 192 kts 78°
2026-04-28 12:05 15.35166 73.84785 1898 ft 184 kts 70°
2026-04-28 12:05 15.35641 73.86061 1826 ft 197 kts 66°
2026-04-28 12:06 15.35994 73.87490 1629 ft 213 kts 78°
2026-04-28 12:06 15.36224 73.88990 1762 ft 206 kts 82°
2026-04-28 12:06 15.36400 73.90375 2074 ft 189 kts 81°
2026-04-28 12:06 15.36624 73.91696 2225 ft 186 kts 77°
2026-04-28 12:07 15.37239 73.92892 2116 ft 198 kts 43°
2026-04-28 12:07 15.38499 73.93591 1359 ft 215 kts
2026-04-28 12:07 15.39926 73.93480 990 ft 193 kts 339°
2026-04-28 12:07 15.40860 73.92738 988 ft 152 kts 294°
2026-04-28 12:08 15.40905 73.91729 1018 ft 153 kts 247°
2026-04-28 12:08 15.40194 73.90784 1017 ft 182 kts 229°
2026-04-28 12:08 15.39685 73.89461 517 ft 224 kts 261°
2026-04-28 12:08 15.39391 73.88097 993 ft 164 kts 250°
2026-04-28 12:09 15.39071 73.87101 896 ft 140 kts 256°
2026-04-28 12:09 15.38680 73.86219 506 ft 127 kts 255°
2026-04-28 12:09 15.38492 73.85315 371 ft 138 kts 261°
2026-04-28 12:09 15.38282 73.84305 216 ft 146 kts 260°
2026-04-28 12:10 15.38098 73.83383 161 ft 109 kts 263°
2026-04-28 12:10 15.38027 73.82971 160 ft 22 kts 269°
2026-04-28 12:10 15.38072 73.82936 159 ft 9 kts 349°
2026-04-28 12:10 15.38142 73.82921 159 ft 11 kts 354°